This demonstration page uses our WeatherBlox Daily Observations layout. Learn more.

Left ArrowRight Arrow

Hourly Observations for March 2, 2021

Temp ( °F °C ) Dew Point ( °F °C ) Humidity (%) Winds ( mph kmh ) Pressure ( in mb ) Visibility ( mi km ) Precip ( " mm )
12:54 am 00:54 Clear 26 -3.3 22 -5.6 84 84 S 8 13 30.31 1026 10 16.0934 0 0
1:54 am 01:54 Clear 28 -2.2 23 -5 81 81 S 6 9 30.29 1026 10 16.0934 0 0
2:54 am 02:54 Clear 28 -2.2 23 -5 81 81 SSE 5 7 30.27 1025 10 16.0934 0 0
3:54 am 03:54 Clear 28 -2.2 23 -5 81 81 S 3 6 30.24 1024 10 16.0934 0 0
4:54 am 04:54 Clear 28 -2.2 23 -5 81 81 SE 3 6 30.22 1023 10 16.0934 0 0
5:54 am 05:54 Clear 28 -2.2 23 -5 81 81 S 5 7 30.21 1023 10 16.0934 0 0
6:54 am 06:54 Clear 31 -0.6 25 -3.9 79 79 S 12 19 30.19 1022 10 16.0934 0 0
7:54 am 07:54 Sunny 34 1.1 26 -3.3 73 73 SSW 12 19 30.17 1022 10 16.0934 0 0
8:54 am 08:54 Sunny 38 3.3 26 -3.3 62 62 SSW 12 19 30.17 1022 10 16.0934 0 0
9:54 am 09:54 Sunny 44 6.7 25 -3.9 47 47 SW 16 26 30.14 1021 10 16.0934 0 0
10:54 am 10:54 Sunny 49 9.4 26 -3.3 41 41 SSW 17 28 30.1 1019 10 16.0934 0 0
11:54 am 11:54 Sunny 55 12.8 27 -2.8 34 34 SSW 22 35 30.05 1018 10 16.0934 0 0
12:54 pm 12:54 Sunny 59 15 25 -3.9 27 27 SW 24 39 30 1016 10 16.0934 0 0
1:54 pm 13:54 Sunny 62 16.7 23 -5 22 22 SW 24 39 29.97 1015 10 16.0934 0 0
2:54 pm 14:54 Sunny 63 17.2 23 -5 22 22 SW 23 37 29.93 1014 10 16.0934 0 0
3:54 pm 15:54 Sunny 64 17.8 22 -5.6 20 20 SW 16 26 29.93 1013 10 16.0934 0 0
4:54 pm 16:54 Sunny 63 17.2 22 -5.6 21 21 SW 17 28 29.92 1013 10 16.0934 0 0
5:54 pm 17:54 Sunny 60 15.6 24 -4.4 25 25 SW 9 15 29.91 1013 10 16.0934 0 0
6:54 pm 18:54 Clear 53 11.7 24 -4.4 32 32 SW 5 7 29.92 1013 10 16.0934 0 0
7:54 pm 19:54 Clear 43 6.1 23 -5 45 45 Calm 29.93 1014 10 16.0934 0 0
8:54 pm 20:54 Clear 45 7.2 23 -5 42 42 Calm 29.93 1014 10 16.0934 0 0
9:54 pm 21:54 Clear 43 6.1 22 -5.6 43 43 Calm 29.94 1014 10 16.0934 0 0
10:54 pm 22:54 Clear 38 3.3 23 -5 55 55 SSE 6 9 29.95 1014 10 16.0934 0 0
11:54 pm 23:54 Clear 39 3.9 24 -4.4 55 55 Calm 29.95 1014 10 16.0934 0 0

Powered by AerisWeather